STARLINK-5663, 55347

Orbit data source: Space-Track

STARLINK-5663, 55347 is a payload satellite owned by SpaceX/Seattle (US) in LEO that was launched on Thu, 26 Jan 2023 UTC via an FALCON 9 launch vehicle from the Air Force Eastern Test Range (AFETR). Payload-class satellites include a variety of spacecraft equipped with specific instruments for various scientific and technological missions. These include communications satellites like Starlink; space stations such as the ISS; scientific satellites like the Hubble; Earth observation satellites from companies like Planet Labs, Umbra, and HawkEye 360; GPS; miniature CubeSats for education and research; and military/defense satellites.

Loading next visibility...
Identifier
55347, 2023-013S
Orbit
LEO
Country
Flag of USUS
Related business
Manufacturer
SpaceX/Seattle
Mission
Operational Commercial Communications
Bus & Motor
STARLINK, Unknown motor
Mass
305 kg wet, ~290 kg dry
Launch date (UTC)
2023-01-26 (3 years ago)
Launch vehicle
FALCON 9
Launch site
Air Force Eastern Test Range (AFETR)
Object type
Payload
Rocket body
Debris
Shape & HBR
Box + 1 Pan, 10.1 m
Radar Cross Section
13.562 m², Large (>1 m²)

Expand to show TLE details & history
Last TLE update: 21 hours ago

TLE from 21 hours ago
0 STARLINK-5663
1 55347U 23013S   25348.88350962  .00000071  00000-0  20349-4 0  9996
2 55347  43.0053  41.0329 0001381 265.3269  94.7416 15.02534463158958
Epoch: 2025-12-14T21:12Z
TLE epoch observation values (Epoch: 2025-12-14T21:12:15.231Z)
Latitude
0.00002°
Longitude
-0.82058°
Altitude
558.942 km
Speed
7.584 km/s
True Right ascension
02h 44m 07s
True Declination
0° 00' 00"
Sunlit
Object was in full shadow at epoch
Visualization orbit readout
Latitude
Unknown
Longitude
Unknown
Altitude
Unknown
Speed
Unknown
Apparent Right ascension
Unknown
Apparent Declination
Unknown
Sunlit
N/A
Visualization observer readout
Local Sidereal Time
17:05:14
Azimuth
Unknown
Elevation
Unknown
Doppler factor
Unknown
Orbital elements
Apogee altitude
561.966 km
Perigee altitude
560.049 km
Semi-major axis
6,939.144 km
Eccentricity
0.00014
Inclination
43.0053°
RAAN
41.0329°
Arg. of periapsis
265.3269°
True anomaly
94.75737°
Mean anomaly
94.7416°
Eccentric anomaly
94.74949°
Mean motion
3.75478 °/min
Orbital period
95.88 mins
BSTAR
0.000020349
Loading maneuver chart data...
Computing Atmospheric mass density...
Loading historical data...
Loading historical data...
Loading historical data...
Loading historical data...
Loading historical data...
Loading historical data...
Loading historical data...

Documentation

Showing up to 5 results
|